User: anonymous   Login
Location: Milton Keynes
(52.0316°N, 0.7531°W)
Time: 23:33:58
(UTC+00:00)
Language:

N. Korean satellite - Orbit

View from above orbital plane
View from above orbital plane
View from above satellite
View from above satellite

Ground track
Ground track

The orbit data is extracted from the following two-line orbital elements,

1 39026U 12072A   20303.75711650  .00002131  00000-0  76670-4 0  9999
2 39026  97.2312 296.6681 0038458 124.5811 235.9068 15.28988720437821
Epoch (UTC): 29 October 2020 18:10:14
Eccentricity: 0.0038458
inclination: 97.2312°
perigee height: 452 km
apogee height: 505 km
right ascension of ascending node: 296.6681°
argument of perigee: 124.5811°
revolutions per day: 15.28988720
mean anomaly at epoch: 235.9068°
orbit number at epoch: 43782

The dashed part of the orbit path shows where the satellite is in the earth's shadow,  

DLR